| time (UTC) | temp F | wind direction | speed MPH | gust MPH | rain 1hr in | rain 24hr in | rain mn in | humidity % | barometer mb |
| 20260508065520 | 43 | 0.0 | 0.0 | 0.00 | 0.01 | 0.01 | 82 | 1011.1 | |
| 20260508064539 | 43 | 0.0 | 0.0 | 0.00 | 0.01 | 0.01 | 81 | 1011.1 | |
| 20260508063519 | 44 | 0.0 | 0.0 | 0.00 | 0.01 | 0.01 | 82 | 1011.1 | |
| 20260508062519 | 44 | 0.0 | 0.0 | 0.00 | 0.01 | 0.01 | 82 | 1011.2 | |
| 20260508061519 | 44 | 0.0 | 0.0 | 0.00 | 0.01 | 0.01 | 82 | 1011.3 | |
| 20260508060519 | 44 | 0.0 | 0.0 | 0.00 | 0.01 | 0.01 | 82 | 1011.5 | |
| 20260508055519 | 45 | 0.0 | 0.0 | 0.00 | 0.01 | 0.01 | 82 | 1011.4 | |
| 20260508054519 | 45 | 0.0 | 0.0 | 0.00 | 0.01 | 0.01 | 82 | 1011.4 | |
| 20260508053519 | 45 | 0.0 | 0.0 | 0.00 | 0.01 | 0.01 | 82 | 1011.5 | |
| 20260508052519 | 45 | 0.0 | 0.0 | 0.01 | 0.01 | 0.01 | 82 | 1011.5 | |
| 20260508051519 | 45 | 0.0 | 0.0 | 0.01 | 0.01 | 0.01 | 81 | 1011.5 | |
| 20260508050519 | 45 | 0.0 | 0.0 | 0.01 | 0.01 | 0.01 | 80 | 1011.4 | |
| 20260508045519 | 45 | 0.0 | 0.0 | 0.01 | 0.01 | 0.01 | 81 | 1011.4 | |
| 20260508044520 | 45 | 0.0 | 0.0 | 0.01 | 0.01 | 0.01 | 82 | 1011.3 | |
| 20260508043519 | 46 | 0.0 | 0.0 | 0.01 | 0.01 | 0.01 | 81 | 1011.4 | |
| 20260508042519 | 46 | 0.0 | 0.0 | 0.00 | 0.00 | 0.00 | 80 | 1011.4 | |
| 20260508041519 | 46 | 0.0 | 0.0 | 0.00 | 0.00 | 0.00 | 79 | 1011.3 | |
| 20260508040520 | 46 | 0.0 | 1.0 | 0.00 | 0.00 | 0.00 | 79 | 1011.3 | |
| 20260508035520 | 46 | 0.0 | 1.0 | 0.00 | 0.00 | 0.00 | 78 | 1011.3 | |
| 20260508034518 | 46 | 0.0 | 3.0 | 0.00 | 0.00 | 0.00 | 78 | 1011.3 | |
| 20260508033518 | 46 | 0.0 | 2.0 | 0.00 | 0.00 | 0.00 | 77 | 1011.2 | |
| 20260508032538 | 46 | 0.0 | 0.0 | 0.00 | 0.00 | 0.00 | 76 | 1011.1 | |
| 20260508031518 | 46 | 0.0 | 0.0 | 0.00 | 0.00 | 0.00 | 76 | 1011.1 | |
| 20260508030518 | 46 | 0.0 | 3.0 | 0.00 | 0.00 | 0.00 | 75 | 1011.1 | |
| 20260508025538 | 46 | 0.0 | 0.0 | 0.00 | 0.00 | 0.00 | 75 | 1011.1 | |
| 20260508024518 | 46 | 0.0 | 3.0 | 0.00 | 0.00 | 0.00 | 75 | 1011.2 | |
| 20260508023518 | 46 | 0.0 | 0.0 | 0.00 | 0.00 | 0.00 | 75 | 1011.0 | |
| 20260508022518 | 46 | 0.0 | 4.0 | 0.00 | 0.00 | 0.00 | 75 | 1010.9 | |
| 20260508021518 | 46 | 0.0 | 0.0 | 0.00 | 0.00 | 0.00 | 75 | 1010.9 | |
| 20260508020538 | 46 | 0.0 | 2.0 | 0.00 | 0.00 | 0.00 | 74 | 1010.6 | |
| 20260508015518 | 46 | 0.0 | 3.0 | 0.00 | 0.00 | 0.00 | 70 | 1010.6 | |
| 20260508014518 | 46 | 0.0 | 0.0 | 0.00 | 0.00 | 0.00 | 69 | 1010.5 | |
| 20260508013518 | 46 | 0.0 | 0.0 | 0.00 | 0.00 | 0.00 | 66 | 1010.4 | |
| 20260508012518 | 46 | 0.0 | 0.0 | 0.00 | 0.00 | 0.00 | 65 | 1010.3 | |
| 20260508011538 | 47 | 0.0 | 0.0 | 0.00 | 0.00 | 0.00 | 65 | 1010.3 | |
| 20260508010538 | 47 | 0.0 | 0.0 | 0.00 | 0.00 | 0.00 | 64 | 1010.1 | |
| 20260508005518 | 48 | 0.0 | 0.0 | 0.00 | 0.00 | 0.00 | 61 | 1010.0 | |
| 20260508004538 | 48 | 0.0 | 0.0 | 0.00 | 0.00 | 0.00 | 60 | 1010.1 | |
| 20260508003518 | 49 | 0.0 | 0.0 | 0.00 | 0.01 | 0.00 | 61 | 1010.0 | |
| 20260508002518 | 49 | 0.0 | 0.0 | 0.00 | 0.01 | 0.00 | 59 | 1009.8 | |
| 20260508001558 | 50 | 0.0 | 0.0 | 0.00 | 0.01 | 0.00 | 58 | 1009.9 | |
| 20260508000518 | 50 | 0.0 | 0.0 | 0.00 | 0.02 | 0.00 | 58 | 1009.8 | |
| 20260507235518 | 50 | 0.0 | 0.0 | 0.00 | 0.05 | 0.00 | 57 | 1009.7 | |
| 20260507234538 | 51 | 0.0 | 0.0 | 0.00 | 0.05 | 0.00 | 56 | 1009.6 | |
| 20260507233518 | 51 | 0.0 | 0.0 | 0.00 | 0.07 | 0.00 | 55 | 1009.7 | |
| 20260507232538 | 51 | 0.0 | 1.0 | 0.00 | 0.09 | 0.00 | 55 | 1009.6 | |
| 20260507231518 | 51 | 0.0 | 0.0 | 0.00 | 0.11 | 0.00 | 53 | 1009.6 | |
| 20260507230516 | 51 | 0.0 | 1.0 | 0.00 | 0.12 | 0.00 | 54 | 1009.6 | |
| 20260507230118 | 51 | 0.0 | 0.0 | 0.00 | 0.12 | 0.00 | 53 | 1009.6 | |
| 20260507225018 | 51 | 0.0 | 2.0 | 0.00 | 0.12 | 0.00 | 53 | 1009.7 | |
| 20260507224018 | 51 | 0.0 | 0.0 | 0.00 | 0.12 | 0.00 | 52 | 1009.6 | |
| 20260507223018 | 52 | 0.0 | 0.0 | 0.00 | 0.12 | 0.00 | 51 | 1009.6 | |
| 20260507222018 | 52 | 0.0 | 0.0 | 0.00 | 0.12 | 0.00 | 50 | 1009.7 | |
| 20260507221903 | 52 | 0.0 | 2.0 | 0.00 | 0.12 | 0.00 | 52 | 1009.6 | |
| 20260507180520 | 57 | 23 | 1.0 | 5.0 | 0.00 | 0.12 | 0.00 | 58 | 1010.5 |
| 20260507175520 | 56 | 23 | 2.0 | 10.0 | 0.00 | 0.12 | 0.00 | 61 | 1010.6 |
| 20260507174519 | 54 | 315 | 1.0 | 7.0 | 0.00 | 0.12 | 0.00 | 62 | 1010.7 |
| 20260507173520 | 54 | 0.0 | 3.0 | 0.00 | 0.12 | 0.00 | 56 | 1010.8 | |
| 20260507172520 | 54 | 270 | 1.0 | 4.0 | 0.00 | 0.12 | 0.00 | 60 | 1010.9 |
| 20260507171520 | 55 | 68 | 1.0 | 9.0 | 0.00 | 0.12 | 0.00 | 58 | 1010.9 |
| 20260507170520 | 54 | 45 | 3.0 | 8.0 | 0.00 | 0.12 | 0.00 | 57 | 1011.0 |
| 20260507165540 | 55 | 293 | 1.0 | 6.0 | 0.00 | 0.12 | 0.00 | 55 | 1011.0 |
| 20260507164520 | 54 | 0.0 | 5.0 | 0.00 | 0.12 | 0.00 | 57 | 1011.0 | |
| 20260507163540 | 56 | 0.0 | 5.0 | 0.00 | 0.12 | 0.00 | 58 | 1011.2 | |
| 20260507162520 | 56 | 225 | 1.0 | 7.0 | 0.00 | 0.12 | 0.00 | 57 | 1011.2 |
| 20260507161540 | 56 | 225 | 1.0 | 4.0 | 0.00 | 0.12 | 0.00 | 53 | 1011.4 |
| 20260507160520 | 55 | 180 | 1.0 | 4.0 | 0.00 | 0.12 | 0.00 | 62 | 1011.4 |
| 20260507155520 | 55 | 203 | 2.0 | 5.0 | 0.00 | 0.12 | 0.00 | 53 | 1011.5 |
| 20260507154520 | 54 | 180 | 1.0 | 6.0 | 0.00 | 0.12 | 0.00 | 57 | 1011.6 |
| 20260507153520 | 54 | 158 | 2.0 | 7.0 | 0.00 | 0.12 | 0.00 | 59 | 1011.8 |
| 20260507152520 | 54 | 158 | 1.0 | 6.0 | 0.00 | 0.12 | 0.00 | 63 | 1011.8 |
| 20260507151520 | 52 | 135 | 1.0 | 4.0 | 0.00 | 0.12 | 0.00 | 65 | 1011.9 |
| 20260507150520 | 49 | 113 | 1.0 | 3.0 | 0.00 | 0.12 | 0.00 | 65 | 1011.9 |
| 20260507145519 | 47 | 0.0 | 1.0 | 0.00 | 0.12 | 0.00 | 74 | 1011.9 | |
| 20260507144520 | 46 | 113 | 1.0 | 4.0 | 0.00 | 0.12 | 0.00 | 76 | 1012.0 |
| 20260507143540 | 46 | 0.0 | 2.0 | 0.00 | 0.12 | 0.00 | 81 | 1012.0 | |
| 20260507142519 | 45 | 113 | 1.0 | 3.0 | 0.00 | 0.12 | 0.00 | 79 | 1012.1 |
| 20260507141520 | 45 | 0.0 | 3.0 | 0.00 | 0.12 | 0.00 | 82 | 1012.2 | |
| 20260507140520 | 44 | 0.0 | 1.0 | 0.00 | 0.12 | 0.00 | 87 | 1012.3 | |
| 20260507135519 | 44 | 0.0 | 4.0 | 0.00 | 0.12 | 0.00 | 91 | 1012.4 | |
| 20260507134519 | 44 | 0.0 | 0.0 | 0.00 | 0.13 | 0.00 | 93 | 1012.5 | |
| 20260507133520 | 43 | 0.0 | 0.0 | 0.00 | 0.13 | 0.00 | 94 | 1012.5 | |
| 20260507132520 | 43 | 0.0 | 0.0 | 0.00 | 0.13 | 0.00 | 94 | 1012.7 | |
| 20260507131700 | 43 | 0.0 | 0.0 | 0.00 | 0.14 | 0.00 | 94 | 1012.7 | |
| 20260507130520 | 43 | 0.0 | 0.0 | 0.00 | 0.14 | 0.00 | 94 | 1012.8 | |
| 20260507125520 | 42 | 0.0 | 0.0 | 0.00 | 0.14 | 0.00 | 94 | 1012.7 | |
| 20260507124540 | 43 | 0.0 | 0.0 | 0.00 | 0.14 | 0.00 | 95 | 1012.7 | |
| 20260507123519 | 42 | 0.0 | 3.0 | 0.00 | 0.15 | 0.00 | 95 | 1012.5 | |
| 20260507122520 | 42 | 0.0 | 0.0 | 0.00 | 0.15 | 0.00 | 95 | 1012.8 | |
| 20260507121519 | 41 | 0.0 | 0.0 | 0.00 | 0.15 | 0.00 | 95 | 1012.5 | |
| 20260507120540 | 41 | 0.0 | 0.0 | 0.00 | 0.16 | 0.00 | 94 | 1012.6 | |
| 20260507115520 | 40 | 0.0 | 0.0 | 0.00 | 0.17 | 0.00 | 94 | 1012.6 | |
| 20260507114520 | 39 | 0.0 | 0.0 | 0.00 | 0.18 | 0.00 | 94 | 1012.6 | |
| 20260507113520 | 39 | 0.0 | 0.0 | 0.00 | 0.18 | 0.00 | 94 | 1012.2 | |
| 20260507112600 | 38 | 0.0 | 0.0 | 0.00 | 0.18 | 0.00 | 93 | 1012.4 | |
| 20260507111519 | 38 | 0.0 | 0.0 | 0.00 | 0.19 | 0.00 | 93 | 1012.6 | |
| 20260507110519 | 38 | 0.0 | 0.0 | 0.00 | 0.19 | 0.00 | 93 | 1012.7 | |
| 20260507105519 | 37 | 0.0 | 0.0 | 0.00 | 0.20 | 0.00 | 93 | 1012.5 | |
| 20260507104520 | 37 | 0.0 | 0.0 | 0.00 | 0.21 | 0.00 | 92 | 1012.4 | |
| 20260507103519 | 37 | 0.0 | 1.0 | 0.00 | 0.22 | 0.00 | 92 | 1012.2 | |
| 20260507102519 | 37 | 0.0 | 0.0 | 0.00 | 0.23 | 0.00 | 91 | 1012.1 | |
| 20260507101519 | 36 | 0.0 | 0.0 | 0.00 | 0.24 | 0.00 | 91 | 1011.9 | |
| 20260507100520 | 36 | 0.0 | 0.0 | 0.00 | 0.25 | 0.00 | 91 | 1012.0 | |
| 20260507095520 | 36 | 0.0 | 0.0 | 0.00 | 0.26 | 0.00 | 90 | 1012.1 | |
| 20260507094520 | 36 | 0.0 | 0.0 | 0.00 | 0.28 | 0.00 | 90 | 1012.0 | |
| 20260507093520 | 36 | 0.0 | 0.0 | 0.00 | 0.29 | 0.00 | 90 | 1012.1 | |
| 20260507092520 | 37 | 0.0 | 0.0 | 0.00 | 0.30 | 0.00 | 90 | 1012.1 | |
| 20260507091520 | 37 | 0.0 | 0.0 | 0.00 | 0.31 | 0.00 | 90 | 1012.0 | |
| 20260507090520 | 37 | 0.0 | 0.0 | 0.00 | 0.32 | 0.00 | 89 | 1011.8 | |
| 20260507085540 | 37 | 0.0 | 0.0 | 0.00 | 0.32 | 0.00 | 89 | 1011.9 | |
| 20260507084520 | 38 | 0.0 | 0.0 | 0.00 | 0.33 | 0.00 | 90 | 1011.8 | |
| 20260507083520 | 38 | 0.0 | 0.0 | 0.00 | 0.34 | 0.00 | 90 | 1012.0 | |
| 20260507082540 | 38 | 0.0 | 0.0 | 0.00 | 0.35 | 0.00 | 90 | 1012.1 | |
| 20260507081519 | 39 | 0.0 | 0.0 | 0.00 | 0.36 | 0.00 | 89 | 1012.1 | |
| 20260507080520 | 39 | 0.0 | 0.0 | 0.00 | 0.38 | 0.00 | 89 | 1011.8 | |
| 20260507075520 | 39 | 0.0 | 0.0 | 0.00 | 0.39 | 0.00 | 89 | 1012.0 | |
| 20260507074519 | 40 | 0.0 | 0.0 | 0.00 | 0.42 | 0.00 | 90 | 1012.1 | |
| 20260507073539 | 40 | 0.0 | 0.0 | 0.00 | 0.44 | 0.00 | 90 | 1012.0 | |
| 20260507072519 | 40 | 0.0 | 0.0 | 0.00 | 0.47 | 0.00 | 90 | 1012.2 | |
| 20260507071539 | 41 | 0.0 | 0.0 | 0.00 | 0.49 | 0.00 | 90 | 1012.3 | |
| 20260507070520 | 41 | 0.0 | 0.0 | 0.00 | 0.51 | 0.00 | 90 | 1012.2 |